Regional Weather Roundup
Issued by NWS

Home | Current Version | Previous Version | Graphics & Text | Print | Product List | Glossary On
Versions: 1 2 3 4 5 6 7 8 9 10 11 12 13 14 15 16 17 18 19 20 21 22 23 24 25 26 27 28 29 30 31 32 33 34 35 36 37 38 39 40 41 42 43 44 45 46 47 48 49 50
000
ASUS43 KTOP 250508
RWRKS

WEATHER ROUNDUP FOR KANSAS
NATIONAL WEATHER SERVICE GOODLAND KS
1200 AM CDT SAT OCT 25 2014

NOTE:  "FAIR" INDICATES FEW OR NO CLOUDS BELOW 12,000 FEET WITH NO
SIGNIFICANT WEATHER AND/OR OBSTRUCTIONS TO VISIBILITY.

KSZ001>006-013>018-027>032-041>047-250600-
NORTHWEST KANSAS

CITY           SKY/WX    TMP DP  RH WIND       PRES   REMARKS
GOODLAND       CLEAR     50  35  56 CALM      30.12F
HAYS           CLEAR     59  48  67 W6        30.04R
HILL CITY      CLEAR     52  43  71 CALM      30.05R
RUSSELL        CLEAR     61  55  81 SW9       30.02R
$$

KSZ061>065-074>080-084>089-250600-
SOUTHWEST KANSAS

CITY           SKY/WX    TMP DP  RH WIND       PRES   REMARKS
DODGE CITY     CLEAR     61  53  75 SW7       30.08S
ELKHART          N/A     68  37  32 SW10        N/A
GARDEN CITY    CLEAR     62  43  49 SE7       30.09R
GREAT BEND     CLEAR     61  54  77 SW9       30.04S
LIBERAL        CLEAR     57  43  58 SW6       30.11S
PRATT          CLEAR     59  55  88 SW7       30.07S
$$

KSZ066>073-081>083-090>101-250600-
SOUTHEAST KANSAS

CITY           SKY/WX    TMP DP  RH WIND       PRES   REMARKS
CHANUTE        CLEAR     63  60  90 S9        30.02S
COFFEYVILLE    CLEAR     62  60  93 S5        30.03S
HUTCHINSON     CLEAR     63  58  83 CALM      30.02S
MEDICINE LODGE   N/A     67  61  81 SE3       30.04S
NEWTON         CLEAR     64  57  77 SW8       30.04S
PARSONS        CLEAR     63  60  90 S6        30.04S
WICHITA INTL   CLEAR     62  58  86 S5        30.02S
WICHITA JABRA  CLEAR     69  61  75 SW8       30.02S
WICHITA MCCONL CLEAR     63  63 100 S7        30.03S
WINFIELD       CLEAR     65  61  87 S5        30.04S
$$

KSZ007>012-019>026-033>040-048>060-102>105-250600-
NORTHEAST KANSAS

CITY           SKY/WX    TMP DP  RH WIND       PRES   REMARKS
CONCORDIA      CLEAR     63  51  65 NE5       30.02R
EMPORIA        CLEAR     63  61  93 SW7       30.00S
LAWRENCE       CLEAR     56  55  97 N3        30.00R FOG
MANHATTAN      CLEAR     62  60  93 CALM      30.00S
MARYSVILLE     CLEAR     55  54  94 N3        30.01R
OLATHE IND     CLEAR     60  59  96 S6        30.01S
OLATHE EXE     CLEAR     62  61  96 SW6       30.00S
SALINA         CLEAR     62  58  86 S5        30.01R
TOPEKA BILLARD CLEAR     59  58  96 CALM      30.00S
TOPEKA FORBES  CLEAR     63  59  87 W3        30.00R
$$



USA.gov is the U.S. government's official web portal to all federal, state and local government web resources and services.